Weather History for Metropolis, IL

Change the Weather History Date:

Tuesday, April 23, 2013

  Actual Average (KPAH) Record (KPAH)
Temperature  
Mean Temperature 62 °F 60 °F  
Max Temperature 73 °F 72 °F 87 °F (1965)
Min Temperature 48 °F 49 °F 30 °F (1986)
Degree Days  
Heating Degree Days 4 6  
Month to date heating degree days 209  
Since 1 July heating degree days 4028  
Cooling Degree Days 0 2  
Month to date cooling degree days 24  
Year to date cooling degree days 31  
Growing Degree Days 12 (Base 50)    
Moisture  
Dew Point 52 °F    
Average Humidity 64    
Maximum Humidity 99    
Minimum Humidity 49    
Precipitation  
Precipitation 0.07 in 0.17 in 1.73 in (1966)
Month to date precipitation 3.55  
Year to date precipitation 15.07  
Snow  
Snow 0.00 in 0.00 in - ()
Month to date snowfall 0.0  
Since 1 July snowfall 9.1  
Snow Depth -    
Sea Level Pressure  
Sea Level Pressure 29.96 in    
Wind  
Wind Speed 7 mph (South)    
Max Wind Speed 20 mph    
Max Gust Speed 32 mph    
Visibility 10 miles    
Events Rain , Thunderstorm    
T = Trace of Precipitation, MM = Missing Value Source: NWS Daily Summary

Daily Weather History Graph

Daily Weather History Graph

Search for Another Location

Airport:

Trip Planner

Search our weather history database for the weather conditions in past years. The results will help you decide how hot, cold, wet, or windy it might be!

Date:

Astronomy

Apr. 23, 2013 Rise Set
Actual Time 6:09 AM CDT 7:37 PM CDT
Civil Twilight 5:42 AM CDT 8:04 PM CDT
Nautical Twilight 5:09 AM CDT 8:37 PM CDT
Astronomical Twilight 4:34 AM CDT 9:12 PM CDT
Moon 5:34 PM CDT (4/23) 4:34 AM CDT (4/23)
Length of Visible Light 14h 22m
Length of Day
13h 27m
Waxing Gibbous, 94% of the Moon is Illuminated
Apr 23
Waxing Gibbous
Apr 25
Full
May 2
Last Quarter
May 9
New
May 17
First Quarter

Hourly Weather History & Observations

Time (CDT) Temp. Dew Point Humidity Pressure Visibility Wind Dir Wind Speed Gust Speed Precip Events Conditions
12:15 AM 61.0 °F 46.4 °F 59% 30.06 in 10.0 mi Calm Calm - N/A   Scattered Clouds
12:35 AM 61.0 °F 45.3 °F 56% 30.06 in 10.0 mi SSE 4.6 mph - N/A   Clear
12:55 AM 62.6 °F 44.1 °F 51% 30.06 in 10.0 mi SSE 3.5 mph - N/A   Clear
1:15 AM 61.5 °F 43.9 °F 52% 30.06 in 10.0 mi South 4.6 mph - N/A   Clear
1:35 AM 61.2 °F 44.6 °F 54% 30.05 in 10.0 mi SSE 4.6 mph - N/A   Clear
2:15 AM 60.8 °F 44.8 °F 56% 30.03 in 10.0 mi SSE 4.6 mph - N/A   Clear
2:55 AM 60.8 °F 45.0 °F 56% 30.03 in 10.0 mi SSE 5.8 mph - N/A   Clear
3:15 AM 60.3 °F 45.5 °F 58% 30.03 in 10.0 mi SSE 5.8 mph - N/A   Clear
3:35 AM 59.7 °F 45.5 °F 59% 30.01 in 10.0 mi SE 4.6 mph - N/A   Clear
3:55 AM 59.4 °F 45.7 °F 61% 30.01 in 10.0 mi SSE 5.8 mph - N/A   Clear
4:15 AM 59.4 °F 46.0 °F 61% 30.02 in 10.0 mi SSE 4.6 mph - N/A   Clear
4:35 AM 59.4 °F 46.4 °F 62% 30.03 in 10.0 mi SSE 3.5 mph - N/A   Scattered Clouds
4:55 AM 59.0 °F 46.4 °F 63% 30.01 in 10.0 mi SSE 5.8 mph - N/A   Scattered Clouds
5:15 AM 59.0 °F 46.8 °F 64% 30.02 in 10.0 mi SSE 5.8 mph - N/A   Clear
5:35 AM 58.3 °F 46.8 °F 66% 30.01 in 10.0 mi SSE 3.5 mph - N/A   Scattered Clouds
5:55 AM 58.6 °F 47.3 °F 66% 30.03 in 10.0 mi South 3.5 mph - N/A   Mostly Cloudy
6:15 AM 58.1 °F 47.5 °F 68% 30.01 in 10.0 mi SE 3.5 mph - N/A   Mostly Cloudy
6:35 AM 58.1 °F 48.4 °F 70% 30.03 in 10.0 mi SSE 4.6 mph - N/A   Scattered Clouds
6:55 AM 58.6 °F 49.3 °F 71% 30.03 in 10.0 mi South 5.8 mph - N/A   Clear
7:15 AM 59.0 °F 50.0 °F 72% 30.03 in 10.0 mi SSE 5.8 mph - N/A   Mostly Cloudy
7:35 AM 59.5 °F 50.9 °F 73% 30.03 in 10.0 mi SSE 6.9 mph - N/A   Scattered Clouds
7:55 AM 60.1 °F 51.8 °F 74% 30.01 in 10.0 mi South 8.1 mph - N/A   Clear
8:15 AM 60.8 °F 52.5 °F 74% 30.01 in 10.0 mi South 9.2 mph - N/A   Scattered Clouds
8:35 AM 61.5 °F 53.1 °F 74% 30.03 in 10.0 mi South 8.1 mph 17.3 mph N/A   Mostly Cloudy
8:55 AM 63.0 °F 54.0 °F 72% 30.01 in 10.0 mi SSE 10.4 mph - N/A   Mostly Cloudy
9:15 AM 63.5 °F 54.5 °F 72% 30.02 in 10.0 mi South 10.4 mph - N/A   Scattered Clouds
9:35 AM 63.5 °F 54.3 °F 72% 30.01 in 10.0 mi SSE 9.2 mph 18.4 mph N/A   Scattered Clouds
9:55 AM 63.7 °F 54.7 °F 72% 30.03 in 10.0 mi South 11.5 mph 16.1 mph N/A   Scattered Clouds
10:15 AM 63.7 °F 55.4 °F 74% 30.05 in 10.0 mi South 9.2 mph - N/A   Overcast
10:35 AM 64.0 °F 55.6 °F 74% 30.06 in 10.0 mi SSW 10.4 mph - N/A   Overcast
10:55 AM 64.6 °F 56.5 °F 75% 30.05 in 10.0 mi South 6.9 mph - N/A   Overcast
11:15 AM 65.3 °F 56.8 °F 74% 30.05 in 10.0 mi South 6.9 mph - N/A   Overcast
11:35 AM 66.2 °F 57.4 °F 73% 30.06 in 10.0 mi South 4.6 mph - N/A   Overcast
11:55 AM 66.2 °F 57.4 °F 73% 30.03 in 10.0 mi South 9.2 mph - N/A   Overcast
12:15 PM 66.2 °F 57.6 °F 74% 30.02 in 10.0 mi South 6.9 mph 17.3 mph N/A   Overcast
12:35 PM 66.9 °F 58.3 °F 74% 29.99 in 10.0 mi SSE 9.2 mph - N/A   Overcast
12:55 PM 66.9 °F 57.9 °F 73% 29.98 in 10.0 mi South 10.4 mph - N/A   Overcast
1:15 PM 69.4 °F 58.5 °F 68% 29.98 in 10.0 mi South 10.4 mph - N/A   Overcast
1:35 PM 67.6 °F 57.7 °F 71% 29.98 in 10.0 mi South 11.5 mph 20.7 mph N/A   Overcast
1:55 PM 70.5 °F 58.5 °F 66% 29.97 in 10.0 mi South 12.7 mph - N/A   Mostly Cloudy
2:15 PM 70.2 °F 58.3 °F 66% 29.95 in 10.0 mi South 10.4 mph - N/A   Mostly Cloudy
2:35 PM 70.9 °F 58.6 °F 65% 29.95 in 10.0 mi South 10.4 mph 19.6 mph N/A   Overcast
2:55 PM 71.4 °F 57.6 °F 62% 29.94 in 10.0 mi SSW 15.0 mph 23.0 mph N/A   Mostly Cloudy
3:15 PM 73.0 °F 55.8 °F 55% 29.93 in 10.0 mi SSW 17.3 mph 26.5 mph N/A   Scattered Clouds
3:35 PM 73.2 °F 56.1 °F 55% 29.92 in 10.0 mi SSW 19.6 mph 29.9 mph N/A   Mostly Cloudy
3:55 PM 72.9 °F 55.6 °F 55% 29.92 in 10.0 mi SSW 19.6 mph 27.6 mph N/A   Overcast
4:15 PM 73.6 °F 55.0 °F 52% 29.90 in 10.0 mi SSW 18.4 mph 32.2 mph N/A   Mostly Cloudy
4:35 PM 73.2 °F 54.9 °F 52% 29.89 in 10.0 mi SSW 19.6 mph 27.6 mph N/A   Mostly Cloudy
4:55 PM 73.2 °F 53.2 °F 49% 29.88 in 10.0 mi South 18.4 mph 27.6 mph N/A   Mostly Cloudy
5:15 PM 72.9 °F 53.4 °F 50% 29.88 in 10.0 mi South 19.6 mph 27.6 mph N/A   Mostly Cloudy
5:35 PM 72.7 °F 53.8 °F 51% 29.87 in 10.0 mi South 17.3 mph 26.5 mph N/A   Overcast
5:55 PM 73.0 °F 54.1 °F 51% 29.86 in 10.0 mi South 12.7 mph 21.9 mph N/A   Mostly Cloudy
6:15 PM 72.3 °F 54.5 °F 53% 29.86 in 10.0 mi South 11.5 mph 21.9 mph N/A Thunderstorm Mostly Cloudy
6:35 PM 71.8 °F 54.9 °F 55% 29.86 in 10.0 mi South 11.5 mph 19.6 mph N/A   Overcast
6:55 PM 71.1 °F 55.0 °F 57% 29.86 in 10.0 mi South 12.7 mph 18.4 mph N/A   Overcast
7:15 PM 71.2 °F 55.0 °F 56% 29.85 in 10.0 mi South 10.4 mph 20.7 mph N/A   Overcast
7:35 PM 71.2 °F 54.5 °F 55% 29.85 in 10.0 mi South 15.0 mph 24.2 mph N/A   Overcast
7:55 PM 71.1 °F 54.0 °F 55% 29.86 in 10.0 mi South 8.1 mph 18.4 mph N/A   Overcast
8:15 PM 70.7 °F 54.0 °F 55% 29.86 in 10.0 mi South 10.4 mph 17.3 mph N/A   Overcast
8:35 PM 70.2 °F 54.3 °F 57% 29.86 in 10.0 mi South 11.5 mph - N/A   Overcast
8:55 PM 70.2 °F 54.5 °F 57% 29.86 in 10.0 mi South 10.4 mph - N/A   Overcast
9:15 PM 70.0 °F 54.5 °F 58% 29.86 in 10.0 mi South 10.4 mph 18.4 mph N/A   Overcast
9:35 PM 69.8 °F 55.0 °F 59% 29.87 in 10.0 mi South 11.5 mph 18.4 mph N/A   Overcast
9:55 PM 69.6 °F 55.2 °F 60% 29.87 in 10.0 mi South 11.5 mph 19.6 mph N/A   Overcast
10:15 PM 69.4 °F 55.4 °F 61% 29.87 in 10.0 mi South 16.1 mph 20.7 mph N/A   Overcast
10:35 PM 69.3 °F 55.4 °F 61% 29.86 in 10.0 mi South 15.0 mph 20.7 mph N/A   Overcast
10:55 PM 63.9 °F 53.2 °F 68% 29.89 in 10.0 mi NW 12.7 mph 24.2 mph N/A   Overcast
11:15 PM 52.7 °F 51.4 °F 95% 29.90 in 5.0 mi NW 12.7 mph - 0.02 in Rain Heavy Rain
11:35 PM 50.2 °F 49.6 °F 98% 29.91 in 10.0 mi NNW 13.8 mph 18.4 mph 0.05 in Rain Rain
11:55 PM 48.9 °F 48.6 °F 99% 29.92 in 10.0 mi NNW 11.5 mph - 0.07 in Rain Heavy Rain